Weather History for Madison, MN

Change the Weather History Date:

Friday, March 1, 2013

  Actual Average (KAQP) Record (KAQP)
Temperature  
Mean Temperature 14 °F -  
Max Temperature 24 °F 25 °F 53 °F (1999)
Min Temperature 5 °F 10 °F -18 °F (2009)
Degree Days  
Heating Degree Days 50    
Moisture  
Dew Point 11 °F    
Average Humidity 83    
Maximum Humidity 92    
Minimum Humidity 69    
Precipitation  
Precipitation 0.00 in - - ()
Sea Level Pressure  
Sea Level Pressure 30.35 in    
Wind  
Wind Speed 8 mph (NNW)    
Max Wind Speed 12 mph    
Max Gust Speed -    
Visibility 10 miles    
Events      
Averages and records for this station are not official NWS values.
T = Trace of Precipitation, MM = Missing Value Source: NWS Daily Summary

Daily Weather History Graph

Daily Weather History Graph

Search for Another Location

Airport:

Trip Planner

Search our weather history database for the weather conditions in past years. The results will help you decide how hot, cold, wet, or windy it might be!

Date:

Astronomy

Mar. 01, 2013 Rise Set
Actual Time 7:02 AM CST 6:12 PM CST
Civil Twilight 6:32 AM CST 6:42 PM CST
Nautical Twilight 5:58 AM CST 7:16 PM CST
Astronomical Twilight 5:24 AM CST 7:50 PM CST
Moon 11:02 PM CST (3/1) 8:36 AM CST (3/1)
Length of Visible Light 12h 09m
Length of Day
11h 10m
Waning Gibbous, 83% of the Moon is Illuminated
Mar 1
Waning Gibbous
Mar 4
Last Quarter
Mar 11
New
Mar 19
First Quarter
Mar 27
Full

Hourly Weather History & Observations

Time (CST) Temp. Windchill Dew Point Humidity Pressure Visibility Wind Dir Wind Speed Gust Speed Precip Events Conditions
12:14 AM 19.4 °F 7.9 °F 15.8 °F 86% 30.25 in 10.0 mi NNW 10.4 mph - N/A   Mostly Cloudy
12:34 AM 19.4 °F 7.9 °F 15.8 °F 86% 30.26 in 10.0 mi North 10.4 mph - N/A   Scattered Clouds
12:53 AM 17.6 °F 5.0 °F 14.0 °F 86% 30.26 in 10.0 mi North 11.5 mph - N/A   Clear
1:14 AM 17.6 °F 5.7 °F 12.2 °F 79% 30.27 in 10.0 mi North 10.4 mph - N/A   Clear
1:34 AM 15.8 °F 4.2 °F 12.2 °F 86% 30.27 in 10.0 mi North 9.2 mph - N/A   Scattered Clouds
1:53 AM 17.6 °F 8.2 °F 14.0 °F 86% 30.27 in 10.0 mi NW 6.9 mph - N/A   Mostly Cloudy
2:14 AM 17.6 °F 5.7 °F 14.0 °F 86% 30.28 in 10.0 mi NNW 10.4 mph - N/A   Overcast
2:34 AM 17.6 °F 6.4 °F 14.0 °F 86% 30.28 in 10.0 mi NNW 9.2 mph - N/A   Overcast
3:34 AM 15.8 °F 4.2 °F 10.4 °F 79% 30.28 in 10.0 mi NNW 9.2 mph - N/A   Scattered Clouds
3:53 AM 14.0 °F 2.9 °F 10.4 °F 86% 30.29 in 10.0 mi NW 8.1 mph - N/A   Clear
4:14 AM 12.2 °F -0.2 °F 10.4 °F 92% 30.29 in 10.0 mi NW 9.2 mph - N/A   Scattered Clouds
4:34 AM 12.2 °F -0.2 °F 8.6 °F 85% 30.30 in 10.0 mi NNW 9.2 mph - N/A   Scattered Clouds
5:14 AM 10.4 °F -0.4 °F 8.6 °F 92% 30.31 in 10.0 mi NW 6.9 mph - N/A   Clear
5:34 AM 10.4 °F -2.4 °F 8.6 °F 92% 30.31 in 10.0 mi NNW 9.2 mph - N/A   Clear
5:53 AM 10.4 °F -2.4 °F 8.6 °F 92% 30.31 in 10.0 mi NNW 9.2 mph - N/A   Scattered Clouds
6:14 AM 10.4 °F -2.4 °F 6.8 °F 85% 30.32 in 10.0 mi NNW 9.2 mph - N/A   Scattered Clouds
6:34 AM 8.6 °F -3.7 °F 6.8 °F 92% 30.33 in 10.0 mi NNW 8.1 mph - N/A   Clear
6:53 AM 8.6 °F -1.3 °F 6.8 °F 92% 30.33 in 10.0 mi NW 5.8 mph - N/A   Clear
7:14 AM 6.8 °F -3.5 °F 3.2 °F 85% 30.33 in 10.0 mi NW 5.8 mph - N/A   Clear
7:34 AM 6.8 °F -0.1 °F 3.2 °F 85% 30.34 in 10.0 mi NW 3.5 mph - N/A   Clear
7:53 AM 6.8 °F -2.0 °F 3.2 °F 85% 30.34 in 10.0 mi NNW 4.6 mph - N/A   Clear
8:14 AM 8.6 °F - 5.0 °F 85% 30.35 in 10.0 mi Calm Calm - N/A   Clear
8:33 AM 8.6 °F -1.3 °F 5.0 °F 85% 30.36 in 10.0 mi NW 5.8 mph - N/A   Clear
9:14 AM 10.4 °F -0.4 °F 6.8 °F 85% 30.37 in 10.0 mi WNW 6.9 mph - N/A   Clear
9:33 AM 10.4 °F -0.4 °F 6.8 °F 85% 30.37 in 10.0 mi WNW 6.9 mph - N/A   Clear
9:54 AM 12.2 °F 4.3 °F 8.6 °F 85% 30.38 in 10.0 mi NW 4.6 mph - N/A   Clear
10:14 AM 14.0 °F 8.2 °F 8.6 °F 79% 30.37 in 10.0 mi NW 3.5 mph - N/A   Clear
10:33 AM 15.8 °F 10.2 °F 10.4 °F 79% 30.38 in 10.0 mi NW 3.5 mph - N/A   Clear
10:54 AM 17.6 °F 12.3 °F 12.2 °F 79% 30.38 in 10.0 mi North 3.5 mph - N/A   Clear
11:33 AM 19.4 °F 12.8 °F 12.2 °F 74% 30.38 in 10.0 mi North 4.6 mph - N/A   Clear
12:13 PM 21.2 °F 14.9 °F 14.0 °F 74% 30.38 in 10.0 mi NNW 4.6 mph - N/A   Clear
12:34 PM 21.2 °F 12.6 °F 15.8 °F 80% 30.38 in 10.0 mi NW 6.9 mph - N/A   Clear
12:54 PM 21.2 °F 13.6 °F 15.8 °F 80% 30.38 in 10.0 mi NNW 5.8 mph - N/A   Clear
1:13 PM 23.0 °F 17.0 °F 15.8 °F 74% 30.37 in 10.0 mi North 4.6 mph - N/A   Clear
1:34 PM 21.2 °F 13.6 °F 15.8 °F 80% 30.37 in 10.0 mi NW 5.8 mph - N/A   Scattered Clouds
1:54 PM 23.0 °F 14.7 °F 15.8 °F 74% 30.36 in 10.0 mi NNW 6.9 mph - N/A   Scattered Clouds
2:13 PM 23.0 °F 14.7 °F 15.8 °F 74% 30.35 in 10.0 mi NNW 6.9 mph - N/A   Clear
2:34 PM 23.0 °F 15.8 °F 15.8 °F 74% 30.35 in 10.0 mi NNW 5.8 mph - N/A   Clear
2:54 PM 24.8 °F 16.1 °F 15.8 °F 69% 30.35 in 10.0 mi North 8.1 mph - N/A   Clear
3:14 PM 24.8 °F 17.9 °F 15.8 °F 69% 30.36 in 10.0 mi North 5.8 mph - N/A   Clear
3:34 PM 24.8 °F 15.3 °F 15.8 °F 69% 30.36 in 10.0 mi NNW 9.2 mph - N/A   Clear
4:14 PM 24.8 °F 16.9 °F 15.8 °F 69% 30.36 in 10.0 mi North 6.9 mph - N/A   Clear
4:33 PM 23.0 °F 13.1 °F 15.8 °F 74% 30.36 in 10.0 mi North 9.2 mph - N/A   Clear
4:54 PM 23.0 °F 14.7 °F 15.8 °F 74% 30.37 in 10.0 mi North 6.9 mph - N/A   Clear
5:13 PM 21.2 °F 12.6 °F 15.8 °F 80% 30.37 in 10.0 mi NNW 6.9 mph - N/A   Clear
5:34 PM 21.2 °F 11.7 °F 15.8 °F 80% 30.37 in 10.0 mi NNW 8.1 mph - N/A   Clear
5:54 PM 19.4 °F 10.4 °F 15.8 °F 86% 30.38 in 10.0 mi NNW 6.9 mph - N/A   Clear
6:13 PM 19.4 °F 11.5 °F 14.0 °F 80% 30.38 in 10.0 mi NW 5.8 mph - N/A   Clear
6:34 PM 19.4 °F 11.5 °F 14.0 °F 80% 30.39 in 10.0 mi NNW 5.8 mph - N/A   Clear
6:54 PM 17.6 °F 12.3 °F 12.2 °F 79% 30.38 in 10.0 mi NNW 3.5 mph - N/A   Clear
7:13 PM 17.6 °F 10.7 °F 14.0 °F 86% 30.38 in 10.0 mi NNW 4.6 mph - N/A   Clear
7:34 PM 15.8 °F 10.2 °F 12.2 °F 86% 30.38 in 10.0 mi NNW 3.5 mph - N/A   Clear
8:14 PM 17.6 °F 10.7 °F 12.2 °F 79% 30.38 in 10.0 mi NW 4.6 mph - N/A   Clear
8:34 PM 12.2 °F 4.3 °F 10.4 °F 92% 30.39 in 10.0 mi WNW 4.6 mph - N/A   Clear
8:53 PM 10.4 °F 2.2 °F 8.6 °F 92% 30.38 in 10.0 mi WNW 4.6 mph - N/A   Clear
9:14 PM 8.6 °F 0.1 °F 6.8 °F 92% 30.38 in 10.0 mi WNW 4.6 mph - N/A   Clear
9:34 PM 8.6 °F 0.1 °F 5.0 °F 85% 30.37 in 10.0 mi West 4.6 mph - N/A   Clear
9:53 PM 8.6 °F -1.3 °F 6.8 °F 92% 30.39 in 10.0 mi WNW 5.8 mph - N/A   Clear
10:14 PM 6.8 °F -3.5 °F 3.2 °F 85% 30.38 in 10.0 mi WNW 5.8 mph - N/A   Clear
10:34 PM 6.8 °F -3.5 °F 3.2 °F 85% 30.38 in 10.0 mi WNW 5.8 mph - N/A   Clear
10:53 PM 5.0 °F -2.1 °F 1.4 °F 85% 30.37 in 10.0 mi WNW 3.5 mph - N/A   Clear
11:14 PM 8.6 °F 0.1 °F 5.0 °F 85% 30.37 in 10.0 mi NW 4.6 mph - N/A   Clear
11:34 PM 6.8 °F - 3.2 °F 85% - 7.0 mi Calm Calm - N/A   Clear
11:53 PM 6.8 °F -0.1 °F 3.2 °F 85% 30.36 in 5.0 mi WNW 3.5 mph - N/A   Clear